Regional Weather Roundup
Issued by NWS Charleston, WV

Home | Current Version | Previous Version | Graphics & Text | Print | Product List | Glossary On
Versions: 1 2 3 4 5 6 7 8 9 10 11 12 13 14 15 16 17 18 19 20 21 22 23 24 25 26 27 28 29 30 31 32 33 34 35 36 37 38 39 40 41 42 43 44 45 46 47 48 49 50
000
ASUS41 KRLX 042210
RWRRLX
West Virginia Regional Weather Roundup
National Weather Service Charleston WV
600 PM EDT WED MAY 04 2016

Note: "fair" indicates few or no clouds below 12,000 feet with no
significant weather and/or obstructions to visibility.

WVZ003-042300-
Northern Panhandle of West Virginia

CITY           SKY/WX    TMP DP  RH WIND       PRES   REMARKS
WHEELING       PTSUNNY   58  44  60 SE9       29.62R
$$

WVZ009-042300-
Northwest West Virginia

CITY           SKY/WX    TMP DP  RH WIND       PRES   REMARKS
PARKERSBURG    LGT RAIN  54  46  74 W9G18     29.69R
$$

WVZ006-042300-
Western West Virginia

CITY           SKY/WX    TMP DP  RH WIND       PRES   REMARKS
HUNTINGTON     LGT RAIN  54  50  86 W5        29.68R
$$

WVZ015-042300-
West Central West Virginia

CITY           SKY/WX    TMP DP  RH WIND       PRES   REMARKS
CHARLESTON     LGT RAIN  55  45  68 NW8       29.66R
$$

WVZ022-031-042300-
North Central West Virginia

CITY           SKY/WX    TMP DP  RH WIND       PRES   REMARKS
CLARKSBURG     PTSUNNY   56  49  77 N5        29.65R
MORGANTOWN     CLOUDY    54  47  77 S3        29.66S
$$

WVZ025-035-042-045-042300-
Southern West Virginia

CITY           SKY/WX    TMP DP  RH WIND       PRES   REMARKS
BECKLEY        PTSUNNY   54  42  64 SE5       29.66F
LOGAN          NOT AVBL
BLUEFIELD      PTSUNNY   56  36  47 W9        29.67S
LEWISBURG      CLOUDY    58  39  50 W6        29.65S
$$

WVZ047-042300-
Northern Mountains of West Virginia

CITY           SKY/WX    TMP DP  RH WIND       PRES   REMARKS
ELKINS         CLOUDY    56  40  55 CALM      29.66S
$$

WVZ052-042300-
Eastern Panhandle of West Virginia

CITY           SKY/WX    TMP DP  RH WIND       PRES   REMARKS
MARTINSBURG    HVY RAIN  54  52  93 CALM      29.64S FOG
PETERSBURG     CLOUDY    62  48  59 CALM      29.64R
$$



USA.gov is the U.S. government's official web portal to all federal, state and local government web resources and services.